Regional Weather Roundup
Issued by NWS Charleston, SC

Current Version | Previous Version | Graphics & Text | Print | Product List | Glossary On
Versions: 1 2 3 4 5 6 7 8 9 10 11 12 13 14 15 16 17 18 19 20 21 22 23 24 25 26 27 28 29 30 31 32 33 34 35 36 37 38 39 40 41 42 43 44 45 46 47 48 49 50
307
ASUS42 KCHS 021812
RWRCHS

REGIONAL WEATHER ROUNDUP
NATIONAL WEATHER SERVICE CHARLESTON SC
100 PM EST FRI DEC 02 2016

NOTE: "FAIR" INDICATES FEW OR NO CLOUDS BELOW 12,000 FEET WITH NO
SIGNIFICANT WEATHER AND/OR OBSTRUCTIONS TO VISIBILITY.

NOT ALL STATIONS ARE QUALITY CONTROLLED. USE DATA WITH CAUTION...
ESPECIALLY DEWPOINT OBSERVATIONS.

SCZ027-030-031-034>040-042>050-021900-
...SOUTHEAST SOUTH CAROLINA...

CITY           SKY/WX    TMP DP  RH WIND       PRES   REMARKS
N CHARLESTON   SUNNY     61  33  35 N8        30.15F
6HR MIN TEMP:  38; 6HR MAX TEMP:  62;

WATERFRONT PRK   N/A     57  40  52 N7        30.14F
MOUNT PLEASANT NOT AVBL
JOHNS ISLAND   FAIR      59  36  41 N8        30.15F
PINOPOLIS        N/A     54  37  54 VRB3      30.07F
MONCKS CORNER  FAIR      55  32  41 N8        30.16F
SUMMERVILLE    FAIR      59  36  41 NW6       30.17F
BEAUFORT MCAS  SUNNY     61  37  41 N9        30.16F
6HR MIN TEMP:  43; 6HR MAX TEMP:  61;

BEAUFORT ARPT  FAIR      59  37  44 NW8       30.16F
HILTON HEAD IS SUNNY     61  41  48 NW8       30.17F
WALTERBORO     CLEAR     61  34  36 NW8       30.17F
ALLENDALE      FAIR      59  34  38 VRB3G13   30.16F

...SOUTHERN MIDLANDS AND PEE DEE...

CITY           SKY/WX    TMP DP  RH WIND       PRES   REMARKS
GEORGETOWN     FAIR      57  32  38 NW5       30.14F
KINGSTREE      FAIR      55  32  41 CALM      30.15F
ORANGEBURG     SUNNY     58  31  35 VRB3      30.17F
6HR MIN TEMP:  37; 6HR MAX TEMP:  58;

BARNWELL       NOT AVBL
AIKEN          FAIR      57  32  38 W7        30.22S
MANNING        NOT AVBL
COLUMBIA       SUNNY     59  31  34 NW9       30.16F
6HR MIN TEMP:  35; 6HR MAX TEMP:  59;

SUMTER         SUNNY     58  33  38 W12       30.14F
6HR MIN TEMP:  39; 6HR MAX TEMP:  59;

FLORENCE       SUNNY     58  33  39 N8        30.15F
6HR MIN TEMP:  37; 6HR MAX TEMP:  58;

MYRTLE BEACH   SUNNY     57  32  38 N7        30.15F
N MYRTLE BEACH SUNNY     59  33  37 VRB7      30.12F
6HR MIN TEMP:  41; 6HR MAX TEMP:  59;


$$

GAZ063-065-086>088-099>101-113>116-118-119-134>141-150-021900-
...SOUTHEAST GEORGIA...

CITY           SKY/WX    TMP DP  RH WIND       PRES   REMARKS
SAVANNAH ARPT  MOSUNNY   61  35  37 NW12      30.17F
6HR MIN TEMP:  39; 6HR MAX TEMP:  62;

HUNTER AAF     SUNNY     62  42  47 NW12      30.14F
6HR MIN TEMP:  37; 6HR MAX TEMP:  62;

FORT STEWART   SUNNY     62  36  37 NW3       30.15F
6HR MIN TEMP:  39; 6HR MAX TEMP:  62;

STATESBORO     SUNNY     61  39  45 NW8       30.18F
SYLVANIA       CLEAR    N/A N/A N/A NE3       30.19S
CLAXTON        FAIR      60  38  43 W6        30.18F

...CSRA...CENTRAL AND FAR SOUTHEAST GEORGIA...

CITY           SKY/WX    TMP DP  RH WIND       PRES   REMARKS
THOMSON        SUNNY     60  34  38 NW5       30.23F
AUGUSTA-BUSH   SUNNY     61  32  33 NW6       30.18F
6HR MIN TEMP:  34; 6HR MAX TEMP:  61;

AUGUSTA-DANIEL SUNNY     59  30  33 W5        30.19F
SWAINSBORO     FAIR      59  32  36 N7        30.19F
VIDALIA        SUNNY     61  37  41 NW6       30.18F
EASTMAN        FAIR      63   8  11 N7        30.22F
HAZLEHURST     FAIR      62  35  36 NW6       30.18F
ALMA           SUNNY     63  33  32 N8        30.18F
6HR MIN TEMP:  39; 6HR MAX TEMP:  63;

WAYCROSS       SUNNY     66  36  33 N8        30.18F
JESUP          FAIR      63  41  45 N9        30.17F
BAXLEY         FAIR      61  37  41 NW7       30.18F
BRUNSWICK      SUNNY     64  41  42 NW10      30.16F
SAINT SIMONS   SUNNY     63  33  32 N7        30.15F
6HR MIN TEMP:  46; 6HR MAX TEMP:  63;


$$

SCZ027-028-034-036>038-045-046-048>050-GAZ119-141-021900-
...LAKE AND SUPPLEMENTAL COASTAL OBSERVATIONS...

STATION/POSITION TIME  TEMP    WIND        PRES    WAVE   SWELL
                       AIR SEA DIR/SP/G            HT/PER HT/PER/DIR
                 (UTC) (F)     (DEG/KT/KT) (MB)    (FT/S) (FT/S/D)
WINYAH BAY       NOT AVBL
LAKE MURRAY      1720   54     170/  6/  8 1021.3F
ACE BASIN NERRS  1645   57     340/  4     1022.0
FORT PULASKI     1748   57 63  350/  8/ 12 1021.3F
SAPELO ISLAND    1700   60     330/  8     1022.0

$$

ANZ835-935-AMZ111-154-330-350-352-354-370-450-454-472-021900-
...C-MAN AND BUOY OBSERVATIONS...

STATION/POSITION TIME  TEMP    WIND        PRES    WAVE   SWELL
                       AIR SEA DIR/SP/G            HT/PER HT/PER/DIR
                 (UTC) (F)     (DEG/KT/KT) (MB)    (FT/S) (FT/S/D)
BUOY 41004       1750   58 74  360/ 14/ 17 1019.5F   3/ 9   2/130/ 9
BUOY 41008       1750   56 65  320/ 12/ 14 1020.9F   2/ 9   2/ 90/ 9
FOLLY BEACH CMAN 1700   57     360/  7/ 11 1021.9F
CAPERS NEARSHORE 1708   55 63   20/ 12/ 16 1020.8S
FRIPP NEARSHORE  1708   54 63   10/ 10/ 14 1021.1F


STATION/POSITION TIME  TEMP    WIND        PRES    WAVE   SWELL
                       AIR SEA DIR/SP/G            HT/PER HT/PER/DIR
                 (UTC) (F)     (DEG/KT/KT) (MB)    (FT/S) (FT/S/D)
5E ST. MARYS GA  1800      67                N/A     2/ 9
FRYING PAN BUOY  1750   56 75  350/ 16/ 19 1019.3F   4/ 5   2/140/ 8
BUOY 41025       1750   56 77  350/ 12/ 16 1018.0F   4/ 7   3/140/ 7
CAPE LOOKOUT NC  1700   54     350/  6/  7 1018.8F
BUOY 41002       1750   70 74  310/ 12/ 16 1016.5F   5/ 6   3/160/ 8
BUOY 41010       NOT AVBL
ST AUGUSTINE FL  1800   59 67   10/  9/ 10 1022.0F


$$




USA.gov is the U.S. government's official web portal to all federal, state and local government web resources and services.